Regional Weather Roundup
Issued by NWS

Home | Current Version | Previous Version | Graphics & Text | Print | Product List | Glossary On
Versions: 1 2 3 4 5 6 7 8 9 10 11 12 13 14 15 16 17 18 19 20 21 22 23 24 25 26 27 28 29 30 31 32 33 34 35 36 37 38 39 40 41 42 43 44 45 46 47 48 49 50
490
ASUS45 KCYS 220010
RWRWY

WYOMING REGIONAL WEATHER ROUNDUP
NATIONAL WEATHER SERVICE CHEYENNE WY
600 PM MDT SAT OCT 21 2017

NOTE:  "FAIR" INDICATES FEW OR NO CLOUDS BELOW 12,000 FEET
WITH NO SIGNIFICANT WEATHER AND/OR OBSTRUCTIONS TO VISIBILITY.

WYZ001-220100-
YELLOWSTONE NATIONAL PARK

CITY           SKY/WX    TMP DP  RH WIND       PRES   REMARKS
LK YELLOWSTONE   N/A     25  20  81 VRB5      30.14R WCI  19
6HR MIN TEMP:  24; 6HR MAX TEMP:  28;

W YELLOWSTONE  NOT AVBL

$$
WYZ002>013-054>058-071-098>099-220100-
NORTHERN WYOMING

CITY           SKY/WX    TMP DP  RH WIND       PRES   REMARKS
JACKSON        CLOUDY    33  20  58 SW16      30.19R WCI  23
CODY           FAIR      43  15  32 SW18G36   30.01R
GREYBULL       FAIR      50  13  22 W16       29.98R
6HR MIN TEMP:  50; 6HR MAX TEMP:  56;

WORLAND        FAIR      48  16  27 NW6       29.98R
6HR MIN TEMP:  48; 6HR MAX TEMP:  55;

SHERIDAN       FAIR      48  15  26 W13       29.93R
6HR MIN TEMP:  48; 6HR MAX TEMP:  57;

BUFFALO        FAIR      47   7  19 NE3       29.96R
6HR MIN TEMP:  47; 6HR MAX TEMP:  54;

GILLETTE       FAIR      44  14  29 W8        29.95R
6HR MIN TEMP:  44; 6HR MAX TEMP:  53;

HULETT         FAIR      46  16  29 W6        29.94R
NEWCASTLE      FAIR      46  12  25 NW13G18   29.97R

$$
WYZ014>020-022>026-101>103-220100-
CENTRAL WYOMING

CITY           SKY/WX    TMP DP  RH WIND       PRES   REMARKS
BIG PINEY      FAIR      37  14  38 NW17      30.17R WCI  27
6HR MIN TEMP:  35; 6HR MAX TEMP:  41;

PINEDALE       FAIR      34  14  44 NW8       30.19R WCI  27
DUBOIS         FAIR      32  14  47 NW15G26   30.10R WCI  22
LANDER         FAIR      46   8  21 E3        30.03R
6HR MIN TEMP:  46; 6HR MAX TEMP:  50;

RIVERTON       FAIR      44  10  25 NW20      30.04R
6HR MIN TEMP:  43; 6HR MAX TEMP:  50;

CASPER         FAIR      44   9  23 W12       30.00R
6HR MIN TEMP:  44; 6HR MAX TEMP:  51;

DOUGLAS        FAIR      44  10  25 W9        30.00R
6HR MIN TEMP:  44; 6HR MAX TEMP:  54;


$$
WYZ021-027>030-104>119-220100-
SOUTHERN WYOMING

CITY           SKY/WX    TMP DP  RH WIND       PRES   REMARKS
EVANSTON       FAIR      38  12  34 SW17      30.24R WCI  28
6HR MIN TEMP:  34; 6HR MAX TEMP:  42;

KEMMERER       FAIR      36  14  41 W18G28    30.21R WCI  25
FORT BRIDGER   FAIR      40  13  33 W21       30.25R WCI  30
ROCK SPRINGS   FAIR      39  10  30 W24G30    30.18R WCI  28
6HR MIN TEMP:  37; 6HR MAX TEMP:  42;

DIXON          MOCLDY    41  21  45 SW10      30.21R
RAWLINS        FAIR      40  10  29 W22G38    30.12R WCI  30
6HR MIN TEMP:  37; 6HR MAX TEMP:  44;

SARATOGA       FAIR      36  19  51 W13       30.16R WCI  27
LARAMIE        FAIR      35  13  40 W17       30.10R WCI  25
6HR MIN TEMP:  35; 6HR MAX TEMP:  40; 6HR PCP: TRACE;

CHEYENNE       FAIR      42  13  30 W20G26    30.09R
6HR MIN TEMP:  42; 6HR MAX TEMP:  47;

TORRINGTON     FAIR      50  18  28 W18G29    30.01
6HR MIN TEMP:  50; 6HR MAX TEMP:  58;

PINE BLUFFS    FAIR      45  10  24 MISG      30.07R

$$




USA.gov is the U.S. government's official web portal to all federal, state and local government web resources and services.